STARLINK-4141

operational
NORAD ID: 53138 Int'l Des: 2022-083 Owner: SPXS Country: US Constellation: starlink
LEOCIRCULAR

STARLINK-4141について

説明を読み込み中...

リアルタイム位置

3D地球を読み込み中...

次回通過

高度履歴

Altitude vs Time

uPlot chart will show altitude changes over time

軌道要素

1 53138U 22083G 25251.77439436 -.00000668 00000-0 -23885-4 0 9995
2 53138 53.2173 265.9553 0001268 88.1828 271.9310 15.08840633174597
Epoch: Sep 8, 2025 • Age: 16 hours

現在のステータス

高度 555.5 km
速度 7.58 km/s
衛星直下点 -44.39°S, 74.37°E
打ち上げ日 Jul 17, 2022
運用期間 3.1 years
タイプ internet

技術仕様

分類 Payload
質量 297.00 kg
乾燥質量 275.00 kg
総質量 297.00 kg
長さ 0.20 m
直径 2.80 m
スパン 9.00 m
形状 Box + pan
製造者 SPXS
バスタイプ Starlink
フェーズステータス In Orbit
所有者/国 SPXS/US

大規模コンステレーション

Loading constellations...